Temperature
18 18 17 17 17 17 17 17 17 16 16 16 16 15 15 15 15 14 14 14 14 14 14 14 14 14 14 14 14 14 14 14 14 14 14 14 14 14 14 14 13 13 13
18 18 17 17 17 17 17 17 17 16 16 16 16 16 15 15 15 15 14 14 14 14 14 14 14 14 14 14 13 13 13 13 13 14 14 14 14 14 14 14 14 14 13
18 18 18 17 17 17 17 17 17 17 16 16 16 16 16 15 15 15 15 14 14 14 14 14 14 14 14 14 13 13 13 13 13 13 14 14 14 14 14 14 14 14 14
18 18 18 18 18 17 17 17 17 17 16 16 16 16 16 16 15 15 15 15 14 14 14 14 14 14 14 14 14 13 13 13 13 13 14 14 14 14 14 14 14 14 14
18 18 18 18 18 17 17 17 17 17 16 16 16 16 16 16 15 15 15 15 14 14 14 14 14 14 14 14 14 14 13 13 13 13 14 14 14 14 14 14 14 14 14
18 18 18 18 18 18 17 17 17 17 16 16 16 16 16 16 15 15 15 14 14 14 14 14 14 14 14 14 14 14 13 13 13 13 13 13 14 14 13 13 13 13 13
18 18 18 18 18 18 17 17 17 16 16 16 16 16 16 16 15 15 15 14 14 14 14 14 14 14 14 14 14 13 13 13 13 13 13 13 13 13 13 13 13 13 13
18 18 18 17 17 17 17 17 17 16 16 16 16 15 15 15 15 15 14 14 14 14 14 14 14 14 14 13 13 13 13 13 13 13 13 13 13 13 12 12 12 12 12
17 17 17 17 17 17 17 17 16 16 16 16 15 15 15 15 14 14 14 14 14 14 13 13 13 13 13 13 13 13 13 13 13 12 12 12 12 12 12 12 12 12 12
17 17 17 16 16 16 16 16 16 16 16 15 15 15 14 14 14 14 13 13 13 13 13 13 13 13 13 12 12 12 12 13 12 12 12 12 12 12 11 11 11 11 11
16 16 16 16 16 15 15 15 15 15 15 15 14 14 14 13 13 13 13 13 13 13 12 12 12 12 12 12 11 11 12 11 11 11 11 11 11 11 11 11 11 10 10
15 15 15 15 15 14 14 14 14 14 14 14 13 13 13 13 13 12 12 12 12 12 12 12 12 11 11 11 11 11 11 11 11 10 11 11 11 11 11 11 10 10 10
14 14 14 14 14 14 13 13 13 13 13 13 12 12 12 12 12 12 12 11 11 11 11 11 11 11 11 10 10 10 10 10 10 10 10 10 10 10 10 10 10 10 10
13 13 13 13 13 13 13 12 12 12 12 12 12 12 12 12 11 11 11 11 11 11 11 10 10 10 10 10 10 10 9 9 9 9 9 9 9 9 9 9 9 9 9
12 12 12 12 12 12 12 12 11 11 11 11 11 11 11 11 11 11 10 10 10 10 10 10 10 9 9 9 9 9 9 9 8 8 8 8 8 8 8 8 8 8 8
12 12 11 11 11 11 11 11 11 11 11 10 10 10 10 10 10 10 9 9 9 9 9 9 9 9 9 8 8 8 8 8 8 8 8 8 7 7 7 7 7 7 7
11 11 11 11 11 11 10 10 10 10 10 10 10 9 9 9 9 9 9 8 8 8 8 8 8 8 7 7 7 7 7 7 7 7 7 7 6 6 6 6 6 6 6
10 10 10 10 10 10 10 10 9 9 9 9 9 9 9 8 8 8 8 8 8 7 7 7 7 6 6 6 6 6 6 6 6 6 6 6 6 6 5 5 5 5 5
10 10 9 9 9 9 9 9 9 9 9 8 8 8 8 8 7 7 7 7 7 7 6 6 6 6 5 5 5 5 5 5 5 5 5 5 5 5 5 5 5 5 5
9 9 9 9 9 8 8 8 8 8 8 8 8 7 7 7 7 7 6 6 6 5 5 5 5 5 5 4 4 4 4 4 5 4 4 4 4 4 4 4 4 4 4
9 8 8 8 8 8 7 7 7 7 7 7 6 6 6 6 6 6 5 5 5 5 4 4 4 4 4 4 4 4 4 4 4 4 4 4 4 4 4 4 3 4 4
8 8 8 7 7 7 7 6 6 6 6 6 5 5 5 5 5 5 4 4 4 4 3 3 3 3 3 3 3 3 3 3 3 3 3 3 3 3 3 3 3 3 3
7 7 7 7 6 6 6 6 5 5 5 5 5 5 4 4 4 4 4 3 3 3 3 3 3 3 3 2 2 2 2 2 2 2 2 2 2 2 2 2 3 3 3
7 6 6 6 6 5 5 5 5 4 4 4 4 4 3 3 3 3 3 2 2 2 2 2 2 2 2 2 2 2 2 2 2 2 2 2 2 2 2 2 2 2 3
6 6 5 5 5 5 4 4 4 4 3 3 3 3 3 2 2 2 2 2 2 2 2 2 2 1 1 1 1 1 1 2 1 1 2 2 2 2 2 2 2 2 2
5 5 5 4 4 4 3 3 3 3 3 2 2 2 2 2 1 1 1 1 1 1 1 1 1 1 1 1 1 1 1 1 1 1 1 1 1 1 2 2 2 2 2
Wind_Speed
9 8 8 8 8 8 9 9 9 8 8 8 9 8 8 8 7 7 6 6 6 5 4 5 5 3 3 3 3 3 3 3 3 3 2 2 2 3 3 5 6 8 9
9 8 7 7 8 9 10 9 8 8 8 9 8 9 9 9 9 9 8 8 8 7 7 6 6 4 5 4 3 4 4 4 4 4 2 2 3 3 3 4 5 7 8
8 8 7 8 10 10 9 8 8 8 8 8 8 9 9 9 9 9 9 8 8 8 8 8 7 6 6 5 5 5 4 4 4 4 4 3 3 3 3 3 4 5 7
9 9 9 9 10 9 8 8 8 8 8 9 9 10 10 9 9 9 9 9 8 8 8 8 8 8 8 7 6 6 5 5 4 4 5 4 4 3 3 4 5 4 5
9 10 10 9 8 8 8 8 8 8 9 9 9 9 8 8 9 9 9 9 9 8 8 8 8 9 10 8 7 7 6 5 5 5 5 4 5 4 4 3 5 6 6
10 10 9 8 8 8 8 8 7 8 8 7 8 8 9 8 10 12 10 8 8 9 8 8 7 8 9 10 10 9 9 7 7 6 6 7 7 6 5 5 5 5 5
9 8 8 8 8 8 8 8 8 8 7 8 8 9 9 10 11 12 13 9 8 8 8 7 7 7 8 7 8 9 10 11 10 8 9 9 8 7 5 7 7 7 8
7 7 7 8 8 7 7 7 7 6 7 7 8 8 8 9 11 12 12 10 8 8 8 8 8 7 6 7 6 7 7 8 9 9 9 10 9 8 7 7 8 8 8
4 4 5 6 6 6 6 6 5 5 6 6 5 7 8 7 9 11 10 7 6 7 7 7 7 7 7 8 7 7 7 7 8 11 12 13 13 13 9 5 6 6 8
3 2 3 4 4 4 4 3 3 3 4 4 3 4 5 5 5 8 8 5 5 5 4 5 7 8 7 7 7 7 8 7 5 6 7 9 10 11 11 9 8 8 8
5 6 5 4 3 3 3 2 2 2 2 2 2 1 1 1 1 2 5 4 5 5 4 4 3 5 6 7 7 6 8 6 5 6 6 7 6 6 7 8 9 9 10
8 8 7 6 5 4 4 3 3 3 3 2 2 2 1 1 1 1 1 2 2 3 3 3 2 4 5 5 5 5 6 5 4 4 5 6 6 7 7 7 9 11 13
9 8 7 7 6 6 5 4 3 3 3 2 2 1 1 1 2 2 1 1 1 1 1 1 1 1 2 3 4 5 4 3 3 4 5 6 6 7 7 6 8 9 12
10 9 8 7 7 7 6 4 4 3 2 2 1 1 1 1 2 2 1 1 1 0 1 1 1 1 0 1 2 2 2 3 3 5 5 6 5 5 6 6 7 7 7
9 8 8 7 7 7 7 6 6 5 3 3 2 2 2 2 2 3 2 2 1 1 1 1 2 2 3 2 2 2 2 2 3 3 4 5 5 6 6 6 6 7 8
8 7 6 6 5 5 6 7 10 9 10 10 7 5 4 4 5 6 5 5 4 3 3 2 2 2 2 3 3 3 3 3 3 4 4 5 6 7 7 7 7 8 9
8 6 5 5 5 5 5 5 5 7 10 11 9 7 6 6 6 6 6 5 5 4 3 2 1 2 3 3 3 4 4 5 4 4 5 5 6 7 7 8 8 8 9
7 7 6 5 4 4 4 4 3 3 4 4 6 7 7 6 6 5 5 4 4 4 2 2 2 2 3 3 4 4 5 5 5 5 6 6 6 6 7 8 8 9 10
6 5 5 4 4 4 4 4 3 4 3 3 3 4 6 5 5 6 4 3 2 3 3 3 3 3 4 4 4 5 5 6 6 6 6 7 7 7 8 9 9 11 11
5 7 5 4 4 4 3 3 3 3 3 3 3 3 3 4 3 4 4 3 3 3 4 4 4 5 5 5 5 5 5 6 7 6 7 7 7 7 9 10 10 10 10
4 4 6 4 4 3 3 3 3 2 2 2 3 4 4 2 3 3 3 4 4 4 4 5 5 5 5 5 5 6 7 7 7 7 7 8 8 8 8 9 10 11 11
3 3 3 3 3 3 3 2 3 3 3 3 4 4 5 3 3 3 4 4 4 4 4 5 5 5 5 6 6 6 7 7 7 8 8 8 8 9 9 10 10 10 11
3 3 3 3 3 3 4 3 3 3 3 4 4 4 5 4 4 4 5 5 5 5 5 5 5 6 7 7 7 6 6 7 7 8 9 9 9 9 10 11 12 13 12
3 4 4 3 3 3 4 4 4 4 4 4 4 4 4 4 5 5 5 5 6 6 7 7 7 8 10 9 9 9 9 10 11 10 10 10 10 10 10 11 12 13 13
4 4 4 3 3 3 3 4 4 4 4 4 4 4 4 5 5 5 6 6 7 7 8 8 8 9 11 12 12 12 14 15 14 12 11 9 10 11 11 12 11 12 12
4 4 4 3 3 3 3 3 3 3 3 4 4 4 4 5 5 6 6 7 7 8 8 8 11 12 13 12 14 16 16 16 15 14 11 8 9 10 11 10 13 12 13
Wind_Direction
180 184 181 185 187 182 186 192 190 184 183 187 190 189 189 188 183 184 192 185 187 193 193 195 205 193 190 186 178 177 184 178 212 252 250 263 260 266 282 272 268 268 273
181 180 187 187 184 188 194 196 191 188 190 193 190 190 194 193 189 192 199 195 196 201 203 201 212 204 205 201 194 199 201 199 206 239 253 249 247 255 266 273 273 269 268
175 180 187 190 187 192 195 194 192 191 192 191 189 194 197 196 195 200 202 202 205 209 207 206 213 205 215 214 211 213 214 210 210 229 253 250 257 258 265 269 269 272 272
177 183 189 192 193 196 194 192 193 191 191 195 197 201 200 199 199 201 202 204 209 215 215 214 215 210 216 217 218 220 217 216 215 231 252 261 262 259 251 265 279 269 274
182 190 198 196 191 191 192 194 193 194 200 200 201 205 204 201 206 204 205 207 210 217 222 224 223 219 219 216 219 219 213 219 225 236 252 263 265 258 256 254 270 286 281
186 196 196 190 188 192 196 194 192 197 200 196 203 207 207 212 210 203 201 209 212 218 225 228 230 230 230 226 226 221 210 216 226 233 248 255 263 259 258 256 266 279 285
188 193 193 190 193 199 200 195 200 203 201 202 207 209 214 216 209 204 203 205 213 218 222 226 232 232 222 230 234 235 231 227 222 228 246 254 261 258 256 264 254 252 259
187 192 194 193 198 195 189 197 202 197 202 208 211 211 215 221 209 207 206 206 215 221 223 222 229 238 230 224 233 240 244 243 238 235 242 252 257 260 253 260 266 267 266
164 180 182 183 188 184 190 199 198 195 202 208 209 211 213 220 211 210 203 206 218 230 233 232 231 239 239 224 228 242 254 258 252 242 245 254 260 263 257 258 258 261 273
95 107 127 145 159 172 184 189 182 188 206 204 211 212 216 228 217 210 202 206 220 232 237 237 233 235 242 229 229 237 252 264 271 272 264 266 265 266 252 239 244 254 266
70 73 76 89 115 129 129 127 131 149 144 147 147 120 150 192 206 212 205 208 220 229 236 239 240 233 238 237 231 236 248 263 272 269 274 277 275 268 261 248 239 240 252
77 75 71 70 74 82 91 88 95 112 115 114 117 102 79 82 95 78 117 188 223 227 241 248 246 222 226 229 226 239 253 259 258 265 272 276 277 275 272 266 257 251 250
71 67 65 65 63 64 76 81 79 83 98 105 120 121 60 42 48 56 88 163 183 208 241 245 293 273 259 248 247 253 258 249 251 259 265 271 274 278 282 282 278 268 264
68 61 57 60 58 56 58 61 69 65 76 86 102 97 66 53 43 37 43 58 55 336 327 354 8 10 337 299 308 298 276 259 254 262 272 277 284 285 284 285 286 288 285
66 60 56 55 59 58 55 50 55 49 57 81 80 87 75 41 20 44 76 59 47 42 59 46 37 19 6 357 345 331 321 305 282 278 281 290 295 296 296 297 289 289 281
66 57 56 57 57 61 64 58 53 57 53 58 65 79 67 66 69 68 66 63 59 79 81 47 18 1 343 329 323 323 319 312 306 303 298 297 297 297 298 299 292 287 284
72 64 57 56 57 60 63 70 61 43 49 51 52 60 67 71 71 64 59 56 52 68 67 35 351 334 329 326 324 318 313 314 312 306 302 298 296 296 294 294 294 292 288
68 65 64 59 59 61 62 64 70 69 50 36 33 41 52 59 58 51 48 54 41 34 29 2 336 326 322 319 317 315 311 310 307 302 299 297 297 297 296 295 293 292 292
68 63 62 60 57 60 64 66 68 70 67 51 33 27 30 37 42 34 34 31 12 355 344 329 320 319 319 317 315 310 307 309 309 308 303 300 298 296 295 295 295 293 290
61 65 66 63 58 57 58 62 62 63 59 46 31 18 13 25 27 17 15 7 358 344 335 328 324 322 319 317 315 313 309 307 308 305 302 300 297 295 295 295 295 295 293
60 56 58 59 56 59 60 57 55 53 46 33 13 3 9 17 9 1 358 355 348 339 334 327 321 320 319 317 313 310 308 305 305 303 301 300 299 297 296 295 295 293 293
68 62 56 58 54 53 53 52 50 46 36 26 10 10 19 24 11 1 356 351 347 340 334 327 326 327 324 320 316 312 308 306 307 307 305 303 301 300 299 297 296 295 294
74 70 63 55 54 55 55 49 47 44 37 30 23 20 21 18 11 5 360 354 351 349 346 341 335 333 333 328 321 313 308 307 309 308 306 302 298 296 296 294 294 296 294
76 78 74 63 56 55 55 50 45 41 37 33 31 26 20 14 11 6 0 354 351 350 348 345 340 335 335 333 327 320 315 314 312 303 297 292 291 290 289 290 292 292 292
76 74 72 68 64 58 55 50 42 35 30 27 24 20 15 10 7 2 357 352 349 346 345 343 339 334 331 330 326 322 321 317 311 305 297 287 284 285 286 288 289 292 292
76 74 67 62 60 56 51 44 37 31 28 26 22 17 13 10 5 359 353 349 344 339 337 336 334 333 330 329 326 324 321 317 313 309 301 289 285 285 288 288 290 290 292
Height
1509 1513 1516 1520 1524 1527 1530 1534 1537 1539 1541 1544 1546 1547 1548 1549 1550 1551 1552 1553 1554 1555 1556 1557 1558 1559 1560 1560 1561 1561 1562 1562 1562 1563 1563 1564 1564 1565 1565 1565 1564 1564 1564
1507 1510 1514 1517 1520 1523 1526 1530 1534 1536 1538 1541 1543 1544 1545 1547 1548 1549 1550 1551 1551 1552 1553 1554 1555 1556 1557 1558 1558 1558 1559 1559 1560 1559 1560 1560 1561 1561 1561 1561 1561 1560 1560
1504 1508 1510 1512 1515 1519 1522 1527 1530 1532 1535 1537 1539 1541 1542 1543 1545 1546 1547 1548 1548 1549 1550 1551 1552 1553 1554 1554 1555 1555 1556 1556 1556 1556 1556 1557 1557 1557 1557 1557 1556 1556 1556
1501 1505 1507 1509 1512 1516 1520 1523 1526 1529 1531 1534 1535 1537 1538 1540 1541 1542 1543 1544 1545 1546 1547 1548 1548 1549 1550 1551 1551 1552 1552 1552 1553 1552 1552 1552 1553 1552 1552 1552 1551 1551 1551
1498 1501 1504 1507 1511 1514 1517 1520 1522 1525 1527 1530 1531 1533 1534 1535 1536 1538 1539 1540 1541 1542 1543 1544 1544 1545 1546 1547 1547 1548 1548 1548 1548 1548 1548 1548 1548 1548 1548 1547 1546 1545 1545
1495 1499 1502 1505 1508 1511 1513 1516 1518 1520 1523 1524 1526 1527 1529 1530 1531 1533 1534 1535 1536 1537 1538 1539 1540 1541 1541 1542 1542 1543 1543 1544 1543 1544 1543 1543 1543 1543 1543 1542 1541 1540 1538
1492 1495 1499 1502 1504 1507 1509 1511 1513 1516 1518 1519 1521 1522 1523 1524 1526 1527 1528 1529 1531 1532 1533 1534 1535 1535 1536 1537 1537 1538 1538 1538 1539 1539 1538 1537 1537 1537 1537 1536 1535 1533 1532
1488 1492 1495 1498 1500 1503 1505 1507 1509 1511 1513 1514 1516 1517 1518 1519 1521 1522 1523 1524 1525 1526 1527 1528 1529 1529 1530 1531 1531 1532 1532 1533 1533 1533 1532 1532 1532 1532 1531 1530 1528 1526 1525
1486 1488 1491 1494 1496 1499 1501 1503 1505 1507 1508 1509 1511 1512 1513 1514 1515 1517 1518 1518 1519 1519 1520 1521 1522 1523 1523 1524 1525 1525 1525 1526 1526 1526 1526 1525 1525 1525 1524 1523 1521 1520 1517
1483 1486 1488 1491 1493 1495 1497 1499 1501 1502 1504 1505 1506 1507 1508 1509 1510 1511 1512 1513 1513 1514 1514 1515 1515 1516 1517 1518 1518 1518 1518 1518 1519 1519 1519 1518 1517 1517 1517 1516 1514 1513 1510
1482 1484 1486 1488 1490 1492 1494 1496 1498 1499 1500 1501 1502 1503 1504 1505 1505 1506 1507 1507 1508 1508 1509 1509 1509 1510 1510 1511 1511 1511 1511 1511 1511 1511 1510 1510 1510 1509 1509 1508 1507 1505 1503
1482 1484 1485 1487 1488 1490 1492 1494 1495 1496 1497 1497 1498 1499 1500 1500 1501 1502 1502 1503 1503 1504 1503 1504 1504 1504 1504 1504 1504 1504 1504 1505 1504 1503 1503 1502 1502 1501 1500 1500 1499 1497 1495
1483 1485 1486 1487 1488 1490 1491 1492 1493 1494 1494 1495 1495 1495 1496 1497 1497 1498 1498 1499 1499 1500 1500 1499 1499 1499 1499 1499 1499 1499 1499 1498 1498 1497 1496 1495 1495 1493 1492 1490 1489 1488 1486
1485 1486 1488 1488 1489 1490 1491 1491 1492 1492 1493 1493 1493 1493 1494 1494 1494 1495 1495 1496 1496 1496 1496 1496 1496 1495 1495 1494 1494 1494 1493 1492 1491 1490 1489 1488 1487 1486 1484 1483 1481 1479 1476
1489 1489 1490 1491 1491 1491 1491 1491 1491 1492 1493 1493 1493 1493 1493 1493 1493 1493 1493 1493 1493 1493 1493 1493 1492 1491 1491 1490 1489 1489 1488 1487 1486 1484 1483 1481 1480 1479 1477 1476 1474 1472 1469
1491 1492 1492 1493 1493 1493 1493 1493 1493 1494 1493 1493 1493 1493 1493 1493 1493 1493 1492 1492 1491 1491 1491 1490 1489 1488 1487 1486 1485 1484 1483 1482 1480 1479 1477 1476 1474 1472 1470 1468 1467 1464 1461
1494 1494 1495 1495 1495 1495 1495 1494 1494 1495 1495 1494 1494 1493 1493 1493 1492 1492 1491 1490 1489 1488 1488 1487 1486 1485 1484 1482 1481 1480 1478 1477 1475 1473 1471 1470 1468 1466 1464 1461 1460 1457 1454
1497 1497 1497 1497 1497 1496 1496 1496 1495 1495 1495 1494 1494 1493 1493 1492 1491 1490 1489 1488 1487 1486 1485 1484 1482 1481 1480 1478 1477 1475 1474 1472 1470 1468 1466 1464 1462 1460 1458 1455 1453 1451 1447
1499 1499 1499 1498 1498 1497 1497 1496 1496 1495 1495 1494 1493 1493 1492 1491 1490 1489 1487 1486 1484 1483 1482 1481 1479 1478 1476 1475 1473 1471 1469 1467 1465 1463 1461 1459 1457 1454 1451 1449 1447 1444 1441
1501 1500 1500 1499 1499 1498 1497 1497 1496 1495 1494 1493 1492 1491 1490 1489 1488 1486 1485 1484 1482 1481 1479 1478 1476 1474 1472 1470 1468 1466 1464 1462 1460 1458 1455 1453 1451 1448 1445 1443 1440 1437 1434
1501 1501 1500 1500 1499 1498 1497 1496 1495 1494 1493 1492 1491 1490 1489 1487 1486 1485 1483 1482 1480 1478 1476 1474 1472 1470 1468 1466 1464 1462 1459 1457 1455 1452 1450 1447 1445 1442 1439 1437 1434 1431 1427
1501 1501 1500 1499 1499 1497 1496 1495 1494 1493 1492 1491 1490 1489 1487 1486 1485 1483 1481 1479 1477 1475 1473 1471 1469 1467 1464 1462 1459 1457 1454 1451 1449 1446 1444 1441 1438 1436 1433 1430 1427 1424 1421
1501 1500 1499 1499 1498 1497 1496 1495 1494 1493 1491 1490 1489 1488 1486 1485 1483 1481 1479 1477 1475 1473 1470 1468 1465 1462 1460 1457 1454 1452 1449 1446 1443 1440 1437 1434 1432 1429 1426 1423 1420 1418 1415
1501 1500 1499 1498 1497 1496 1495 1494 1493 1492 1490 1489 1488 1486 1485 1483 1481 1479 1477 1474 1472 1469 1467 1464 1461 1458 1455 1452 1450 1447 1444 1441 1437 1434 1431 1428 1425 1422 1419 1417 1414 1411 1408
1500 1499 1498 1498 1497 1496 1495 1494 1492 1491 1490 1489 1487 1485 1484 1482 1480 1477 1475 1472 1469 1466 1463 1460 1457 1454 1451 1448 1445 1442 1438 1435 1432 1429 1425 1422 1419 1416 1413 1411 1408 1405 1402
1499 1499 1498 1497 1496 1495 1494 1493 1492 1491 1489 1488 1486 1485 1482 1480 1478 1475 1473 1470 1467 1464 1460 1457 1454 1450 1447 1443 1440 1437 1433 1430 1427 1424 1420 1417 1414 1411 1408 1405 1402 1399 1397